Home   Weather   Sidney   Past weeks

Flag for USA Past Weather in Sidney, Montana, USA — Yesterday and Last 2 Weeks

Now
69 °F

Sunny.


Feels Like: 69 °F
Forecast: 40 / 67 °F
Wind: 12 mph from West

Location: Sidney-Richland

Current Time: Sep 26, 2016 at 4:39:17 PM

Latest Report: Sep 26, 2016 at 3:56 PM


Visibility: 10 mi

Pressure: 30.18 "Hg (28.17 "Hg at 591m altitude)

Humidity: 32%

Dew Point: 38 °F

Location of SidneyLocation

Past Weather in Sidney — Graph

°F

Sidney Temperature Yesterday

Maximum temperature yesterday: 67 °F (at 2:56 PM)
Minimum temperature yesterday: 44 °F (at 5:56 AM)
Average temperature yesterday: 54 °F

High & Low Weather Summary for the Past Weeks

 TemperatureHumidityPressure
High83 °F (Sep 17, 3:56 PM)100% (Sep 23, 5:56 PM)30.42 "Hg (Sep 23, 5:56 PM)
Low29 °F (Sep 13, 5:56 AM)20% (Sep 17, 3:56 PM)29.60 "Hg (Sep 18, 4:56 AM)
Average56 °F70%30.03 "Hg
* Reported Sep 11 2:56 PM — Sep 26 2:56 PM, Sidney, Weather by CustomWeather, © 2016

Note: Actual official high and low records may vary slightly from our data, if they occured in-between our weather recording intervals... More about our weather records

Advertising

Sidney Weather History for the Previous 24 Hours

Scroll right to see more
 ConditionsComfort  
Time TempWeatherWind HumidityBarometerVisibility
2:56 PM
Mon, Sep 26
70 °FSunny.14 mph32%30.19 "Hg10 mi
1:56 PM68 °FSunny.7 mph32%30.21 "Hg10 mi
12:56 PM67 °FSunny.10 mph32%30.23 "Hg10 mi
11:56 AM64 °FSunny.6 mph49%30.25 "Hg10 mi
10:56 AM58 °FSunny.7 mph70%30.26 "Hg10 mi
9:56 AM52 °FSunny.5 mph77%30.27 "Hg10 mi
8:56 AM46 °FSunny.3 mph83%30.29 "Hg10 mi
7:56 AM40 °FSunny.No wind97%30.27 "Hg10 mi
6:56 AM36 °FSunny.3 mph97%30.27 "Hg10 mi
5:56 AM37 °FClear.3 mph93%30.25 "Hg10 mi
4:56 AM37 °FClear.No wind93%30.25 "Hg10 mi
3:56 AM38 °FClear.No wind93%30.25 "Hg10 mi
2:56 AM37 °FClear.No wind96%30.24 "Hg10 mi
1:56 AM39 °FClear.No wind89%30.24 "Hg10 mi
12:56 AM41 °FClear.3 mph89%30.25 "Hg10 mi
11:56 PM
Sun, Sep 25
44 °FClear.No wind82%30.25 "Hg10 mi
10:56 PM47 °FClear.No wind74%30.25 "Hg10 mi
9:56 PM46 °FClear.9 mph77%30.26 "Hg10 mi
8:56 PM49 °FClear.5 mph69%30.26 "Hg10 mi
7:56 PM56 °FClear.10 mph51%30.25 "Hg10 mi
6:56 PM56 °FClear.8 mph49%30.24 "Hg10 mi
5:56 PM64 °FScattered clouds.12 mph35%30.23 "Hg10 mi
4:56 PM64 °FPassing clouds.12 mph34%30.23 "Hg10 mi
Weather by CustomWeather, © 2016

See weather overviewHow to use our weather pages